CHINASAT 2D (ZX 2D)

Last updated on Nov. 29, 2020, 6:16 a.m. UTC

1 43920U 19001A   20333.52236852 -.00000319  00000-0  00000-0 0  9997
2 43920   0.0164 274.0365 0000962 180.5246 291.4098  1.00270303 33758
UTC
Height (km)
Latitude
Longitude
Inclination
Orbital Period
UTC large
Height (km)
Speed (km/s)
/
Latitude / Longitude
Inclination (degrees)
Orbital Period (minutes)
Azimuth
Elevation
Range (km)
Doppler Factor
iOS Compass Heading
iOS Angle

Next 30 passes for location: Hong Kong

Rise time Rise Azimuth (degrees) Set time Set Azimuth (degrees) Duration Max altitude (degrees)

No matching passes for this satellites